COSMOS 1134

导读 | 豆包AI

**COSMOS 1134卫星摘要** COSMOS 1134是苏联(CIS)于1979年9月25日发射的人造卫星,隶属于苏联"宇宙"(Cosmos)系列卫星。该系列采用统一命名规则,大量军用与科研卫星均以此命名,目的是模糊卫星真实用途增强保密性。作为冷战时期苏联太空探索的产物,它服役完成任务后已退役,目前作为空间碎片在轨道漂浮,是人类早期太空活动留下的技术见证。

基本信息
目录编号:
11542
目录名称:
COSMOS 1134
国际标识:
1979-084E
轨道中心:
EARTH
卫星名称:
COSMOS 1134
卫星全名:
--
卫星状态:
在轨 (已飞行17019 天)
发射日期:
1979-09-25 UTC
国别 :
俄罗斯(独联体) (CIS)
星等 :
--
轨道信息
数据来源 国际轨道数据
星历时间: 2026-04-30T13:41:20+0800
9小时前
查看轨道信息
半长轴: 7846.488km
偏心率: 0.0019196
轨道倾角: 74.025°
近地点辐角 179.956°
升交点赤经 69.279°
平近点角 286.593°
近地点: 1453.288km
远地点: 1483.414km
周期: 115.285分钟
每日圈数: 12.490789
详细信息
使用方式:
暂无
2D轨道图
3D轨道图
轨道高度分析图
轨道倾角分析图
轨道综合分析图
查看轨道综合分析图